Weather History for Albany, NY

Change the Weather History Date:

Saturday, March 29, 2014

  Actual Average Record
Temperature  
Mean Temperature 45 °F 40 °F  
Max Temperature 53 °F 50 °F 85 °F (1946)
Min Temperature 36 °F 31 °F 0 °F (1923)
Degree Days  
Heating Degree Days 20 25  
Month to date heating degree days 1095 880  
Since 1 July heating degree days 6212 5824  
Cooling Degree Days 0 0  
Month to date cooling degree days 0 0  
Year to date cooling degree days 0 0  
Moisture  
Dew Point 35 °F    
Average Humidity 74    
Maximum Humidity 92    
Minimum Humidity 56    
Precipitation  
Precipitation 0.43 in 0.11 in 1.37 in (1993)
Month to date precipitation 2.06 3.00  
Year to date precipitation 7.85 7.79  
Snow  
Snow 0.00 in 0.20 in 5.60 in (1984)
Month to date snowfall 5.9 9.8  
Since 1 July snowfall 71.1 56.3  
Snow Depth 0.00 in    
Sea Level Pressure  
Sea Level Pressure 30.13 in    
Wind  
Wind Speed 8 mph (North)    
Max Wind Speed 21 mph    
Max Gust Speed 28 mph    
Visibility 9 miles    
Events Rain    
T = Trace of Precipitation, MM = Missing Value Source: NWS Daily Summary

Daily Weather History Graph

Daily Weather History Graph

Search for Another Location

Airport:

Trip Planner

Search our weather history database for the weather conditions in past years. The results will help you decide how hot, cold, wet, or windy it might be!

Date:

Astronomy

Mar. 29, 2014 Rise Set
Actual Time 6:42 AM EDT 7:17 PM EDT
Civil Twilight 6:14 AM EDT 7:46 PM EDT
Nautical Twilight 5:40 AM EDT 8:19 PM EDT
Astronomical Twilight 5:06 AM EDT 8:54 PM EDT
Moon 5:51 AM EDT (3/29) 6:19 PM EDT (3/29)
Length of Visible Light 13h 32m
Length of Day
12h 35m
Waning Crescent, 2% of the Moon is Illuminated
Mar 29
Waning Crescent
Mar 30
New
Apr 7
First Quarter
Apr 15
Full
Apr 22
Last Quarter

Hourly Weather History & Observations

Time (EDT) Temp. Windchill Dew Point Humidity Pressure Visibility Wind Dir Wind Speed Gust Speed Precip Events Conditions
12:01 AM 46.9 °F - 39.0 °F 74% 30.11 in 10.0 mi Variable 5.8 mph - N/A   Overcast
12:51 AM 45.0 °F 39.3 °F 39.0 °F 80% 30.16 in 10.0 mi WNW 11.5 mph 20.7 mph 0.00 in   Light Drizzle
1:15 AM 45.0 °F 40.1 °F 37.9 °F 76% 30.16 in 10.0 mi NW 9.2 mph - 0.00 in   Overcast
1:25 AM 44.1 °F 42.5 °F 37.9 °F 79% 30.16 in 10.0 mi West 3.5 mph - 0.00 in   Overcast
1:51 AM 44.1 °F 38.6 °F 36.0 °F 73% 30.18 in 10.0 mi West 10.4 mph - 0.00 in   Overcast
2:21 AM 43.0 °F 37.7 °F 36.0 °F 76% 30.18 in 10.0 mi West 9.2 mph - N/A   Overcast
2:51 AM 42.1 °F 34.5 °F 35.1 °F 76% 30.19 in 10.0 mi West 15.0 mph - N/A   Overcast
3:51 AM 41.0 °F 33.1 °F 35.1 °F 79% 30.17 in 10.0 mi WNW 15.0 mph - N/A   Overcast
4:33 AM 39.9 °F 34.5 °F 35.1 °F 83% 30.18 in 10.0 mi NNW 8.1 mph - N/A   Overcast
4:51 AM 39.9 °F 35.1 °F 35.1 °F 83% 30.19 in 10.0 mi NW 6.9 mph - N/A   Overcast
5:51 AM 39.9 °F 36.7 °F 34.0 °F 79% 30.22 in 10.0 mi Variable 4.6 mph - N/A   Overcast
6:01 AM 39.0 °F 36.8 °F 34.0 °F 82% 30.21 in 10.0 mi North 3.5 mph - N/A   Mostly Cloudy
6:12 AM 37.9 °F 32.7 °F 33.1 °F 83% 30.20 in 10.0 mi North 6.9 mph - N/A   Mostly Cloudy
6:51 AM 37.0 °F 31.0 °F 33.1 °F 86% 30.21 in 10.0 mi NNW 8.1 mph - N/A   Mostly Cloudy
7:51 AM 37.9 °F - 34.0 °F 86% 30.24 in 10.0 mi Calm Calm - N/A   Mostly Cloudy
8:13 AM 39.0 °F - 34.0 °F 82% 30.24 in 10.0 mi Calm Calm - N/A   Overcast
8:51 AM 39.9 °F 37.8 °F 35.1 °F 83% 30.25 in 10.0 mi NW 3.5 mph - N/A   Overcast
9:51 AM 41.0 °F - 36.0 °F 82% 30.27 in 10.0 mi Calm Calm - N/A   Overcast
10:51 AM 45.0 °F 39.7 °F 37.0 °F 74% 30.25 in 10.0 mi NE 10.4 mph - N/A   Mostly Cloudy
11:51 AM 46.0 °F 43.1 °F 36.0 °F 68% 30.22 in 10.0 mi ENE 5.8 mph - N/A   Mostly Cloudy
12:12 PM 46.9 °F - 36.0 °F 66% 30.21 in 10.0 mi NE 6.9 mph - N/A   Mostly Cloudy
12:51 PM 50.0 °F - 37.0 °F 61% 30.19 in 10.0 mi Variable 4.6 mph - N/A   Mostly Cloudy
1:51 PM 51.1 °F - 37.0 °F 59% 30.16 in 10.0 mi NNE 9.2 mph - N/A   Mostly Cloudy
2:51 PM 50.0 °F - 36.0 °F 59% 30.12 in 10.0 mi NE 9.2 mph - N/A   Overcast
3:51 PM 48.9 °F - 36.0 °F 61% 30.09 in 10.0 mi NNE 10.4 mph - N/A   Overcast
4:51 PM 46.9 °F - 34.0 °F 61% 30.08 in 10.0 mi NE 10.4 mph - N/A   Overcast
5:51 PM 46.0 °F 40.6 °F 32.0 °F 58% 30.06 in 10.0 mi NNE 11.5 mph - N/A   Overcast
6:51 PM 43.0 °F 37.2 °F 32.0 °F 65% 30.05 in 10.0 mi North 10.4 mph - 0.00 in   Overcast
7:51 PM 41.0 °F 35.2 °F 33.1 °F 73% 30.02 in 9.0 mi NNE 9.2 mph - 0.00 in Rain Light Rain
8:51 PM 39.0 °F 33.4 °F 35.1 °F 86% 30.00 in 7.0 mi North 8.1 mph - 0.05 in Rain Light Rain
9:25 PM 37.9 °F 30.9 °F 35.1 °F 89% 29.98 in 4.0 mi North 10.4 mph - 0.02 in Rain Light Rain
9:51 PM 37.9 °F 32.1 °F 35.1 °F 89% 29.97 in 4.0 mi North 8.1 mph - 0.04 in Rain Light Rain
10:30 PM 37.0 °F 30.4 °F 35.1 °F 93% 29.93 in 4.0 mi North 9.2 mph - 0.04 in Rain Light Rain
10:51 PM 37.0 °F 30.4 °F 35.1 °F 93% 29.93 in 3.0 mi North 9.2 mph - 0.07 in Rain Light Rain
11:12 PM 37.0 °F 31.0 °F 35.1 °F 93% 29.91 in 3.0 mi North 8.1 mph - 0.03 in Rain Light Rain
11:51 PM 37.0 °F 30.4 °F 34.0 °F 89% 29.90 in 3.0 mi North 9.2 mph - 0.11 in Rain Rain